User: anonymous   Login
Location: *
(46.1866°S, 178.5290°W)
Time: 16:13:28
(UTC+00:00)
Language:

Cosmos 1867 - Orbit

View from above orbital plane
View from above orbital plane
View from above satellite
View from above satellite

Ground track
Ground track

The orbit data is extracted from the following two-line orbital elements,

1 18187U 87060A   21208.41530378 -.00000087  00000-0  50043-5 0  9993
2 18187  65.0120 347.3516 0020514 275.4285  84.4459 14.31124094778820
Epoch (UTC): 27 July 2021 09:58:02
Eccentricity: 0.0020514
inclination: 65.0120°
perigee height: 773 km
apogee height: 802 km
right ascension of ascending node: 347.3516°
argument of perigee: 275.4285°
revolutions per day: 14.31124094
mean anomaly at epoch: 84.4459°
orbit number at epoch: 77882

The dashed part of the orbit path shows where the satellite is in the earth's shadow,  

DLR